LYM4804 KDEN-KPUB

Flight info

Callsign LYM4804
Flight time 0h 25m
Altitude 20000
Route PIKES3 PUB
Aircraft E145/M-SDFGIRW/S

Departure

Time 2026-05-06 01:11
Airport Denver International Airport (KDEN)

Arrival

Time 2026-05-06 01:36
Airport Pueblo Memorial Airport (KPUB)
Time Latitude Longitude Altitude Speed Heading
2026-05-06 00:47 39.86284 -104.66476 5415 ft 0 kts 90°
2026-05-06 01:00 39.86284 -104.66475 5416 ft 0 kts 90°
2026-05-06 01:00 39.86284 -104.66478 5416 ft 2 kts 90°
2026-05-06 01:01 39.86284 -104.66495 5416 ft 0 kts 90°
2026-05-06 01:01 39.86283 -104.66512 5415 ft 2 kts 68°
2026-05-06 01:01 39.86274 -104.66529 5415 ft 2 kts 40°
2026-05-06 01:01 39.86261 -104.66539 5416 ft 2 kts 13°
2026-05-06 01:02 39.86251 -104.66541 5416 ft 0 kts
2026-05-06 01:07 39.86258 -104.66544 5416 ft 4 kts 341°
2026-05-06 01:07 39.86310 -104.66569 5413 ft 10 kts 346°
2026-05-06 01:07 39.86402 -104.66573 5408 ft 15 kts 359°
2026-05-06 01:07 39.86497 -104.66509 5407 ft 16 kts 77°
2026-05-06 01:08 39.86500 -104.66355 5407 ft 17 kts 90°
2026-05-06 01:08 39.86553 -104.66225 5404 ft 19 kts
2026-05-06 01:08 39.86709 -104.66223 5395 ft 24 kts
2026-05-06 01:08 39.86870 -104.66222 5383 ft 22 kts
2026-05-06 01:09 39.87053 -104.66219 5369 ft 29 kts
2026-05-06 01:09 39.87269 -104.66218 5349 ft 27 kts 360°
2026-05-06 01:09 39.87472 -104.66214 5336 ft 29 kts
2026-05-06 01:09 39.87648 -104.66212 5326 ft 23 kts 360°
2026-05-06 01:10 39.87759 -104.66148 5321 ft 14 kts 92°
2026-05-06 01:10 39.87755 -104.66092 5321 ft 2 kts 90°
2026-05-06 01:10 39.87753 -104.65713 5320 ft 81 kts 91°
2026-05-06 01:10 39.87745 -104.64699 5345 ft 140 kts 89°
2026-05-06 01:11 39.87701 -104.63335 5634 ft 163 kts 97°
2026-05-06 01:11 39.87073 -104.61991 6073 ft 190 kts 139°
2026-05-06 01:11 39.85955 -104.60953 6726 ft 203 kts 142°
2026-05-06 01:11 39.84805 -104.59892 7463 ft 209 kts 142°
2026-05-06 01:12 39.83601 -104.58773 8168 ft 218 kts 142°
2026-05-06 01:12 39.82324 -104.57573 8508 ft 243 kts 142°
2026-05-06 01:12 39.80851 -104.56177 8566 ft 277 kts 142°
2026-05-06 01:12 39.79235 -104.54646 9277 ft 290 kts 143°
2026-05-06 01:13 39.77528 -104.53472 10566 ft 282 kts 163°
2026-05-06 01:13 39.75572 -104.53091 11455 ft 288 kts 175°
2026-05-06 01:13 39.73541 -104.52903 12296 ft 295 kts 178°
2026-05-06 01:13 39.71486 -104.52750 13161 ft 299 kts 180°
2026-05-06 01:14 39.67294 -104.52454 14784 ft 308 kts 181°
2026-05-06 01:14 39.65161 -104.52303 15509 ft 313 kts 182°
2026-05-06 01:14 39.62969 -104.52149 16248 ft 318 kts 182°
2026-05-06 01:15 39.60759 -104.51994 16950 ft 322 kts 183°
2026-05-06 01:15 39.58505 -104.51836 17636 ft 326 kts 184°
2026-05-06 01:15 39.56221 -104.51676 18272 ft 331 kts 184°
2026-05-06 01:15 39.53919 -104.51515 18907 ft 336 kts 184°
2026-05-06 01:16 39.51502 -104.51349 19001 ft 358 kts 183°
2026-05-06 01:16 39.48938 -104.51169 18998 ft 380 kts 182°
2026-05-06 01:16 39.46230 -104.50979 19006 ft 400 kts 182°
2026-05-06 01:16 39.43386 -104.50779 19006 ft 418 kts 182°
2026-05-06 01:17 39.40459 -104.50573 18993 ft 419 kts 182°
2026-05-06 01:17 39.37563 -104.50371 18996 ft 421 kts 182°
2026-05-06 01:17 39.34631 -104.50166 18985 ft 422 kts 182°
2026-05-06 01:17 39.31683 -104.49961 18993 ft 423 kts 181°
2026-05-06 01:18 39.28731 -104.49755 18987 ft 421 kts 181°
2026-05-06 01:18 39.25820 -104.49552 18988 ft 417 kts 181°
2026-05-06 01:18 39.22926 -104.49351 18983 ft 414 kts 181°
2026-05-06 01:18 39.20073 -104.49152 18979 ft 411 kts 181°
2026-05-06 01:19 39.17214 -104.48955 18992 ft 409 kts 181°
2026-05-06 01:19 39.14374 -104.48758 18989 ft 407 kts 181°
2026-05-06 01:19 39.11539 -104.48562 19029 ft 404 kts 181°
2026-05-06 01:19 39.08772 -104.48369 18990 ft 395 kts 181°
2026-05-06 01:20 39.06043 -104.48179 18216 ft 388 kts 182°
2026-05-06 01:20 39.03379 -104.47997 17265 ft 385 kts 181°
2026-05-06 01:20 39.00728 -104.47814 17062 ft 379 kts 181°
2026-05-06 01:20 38.98102 -104.47632 17045 ft 371 kts 181°
2026-05-06 01:21 38.95566 -104.47457 17048 ft 363 kts 181°
2026-05-06 01:21 38.93065 -104.47285 17047 ft 356 kts 181°
2026-05-06 01:21 38.90613 -104.47116 17044 ft 351 kts 181°
2026-05-06 01:21 38.88182 -104.46950 17042 ft 351 kts 181°
2026-05-06 01:22 38.85731 -104.46782 17044 ft 351 kts 181°
2026-05-06 01:22 38.83288 -104.46614 17046 ft 349 kts 181°
2026-05-06 01:22 38.80891 -104.46411 16790 ft 347 kts 176°
2026-05-06 01:22 38.78577 -104.45364 16282 ft 360 kts 152°
2026-05-06 01:23 38.76610 -104.43409 15958 ft 357 kts 148°
2026-05-06 01:23 38.74396 -104.42149 15571 ft 343 kts 172°
2026-05-06 01:23 38.72080 -104.42118 15200 ft 330 kts 194°
2026-05-06 01:23 38.69799 -104.42458 14826 ft 334 kts 180°
2026-05-06 01:24 38.67537 -104.41641 14443 ft 343 kts 157°
2026-05-06 01:24 38.65345 -104.40594 14108 ft 331 kts 175°
2026-05-06 01:24 38.63139 -104.40769 14062 ft 314 kts 200°
2026-05-06 01:24 38.61129 -104.41815 14070 ft 308 kts 207°
2026-05-06 01:25 38.59184 -104.42901 14055 ft 305 kts 207°
2026-05-06 01:25 38.57225 -104.43991 14040 ft 303 kts 207°
2026-05-06 01:25 38.55306 -104.45055 14063 ft 300 kts 207°
2026-05-06 01:25 38.53379 -104.46115 14054 ft 300 kts 207°
2026-05-06 01:26 38.51485 -104.47160 14054 ft 302 kts 206°
2026-05-06 01:26 38.49539 -104.48244 14059 ft 304 kts 207°
2026-05-06 01:26 38.47605 -104.49314 14055 ft 306 kts 207°
2026-05-06 01:26 38.45649 -104.50413 14053 ft 308 kts 207°
2026-05-06 01:27 38.43706 -104.51493 14045 ft 299 kts 207°
2026-05-06 01:27 38.41807 -104.52541 14011 ft 290 kts 207°
2026-05-06 01:27 38.39997 -104.53521 13915 ft 273 kts 207°
2026-05-06 01:27 38.38260 -104.54459 13541 ft 270 kts 206°
2026-05-06 01:28 38.36704 -104.55713 13004 ft 264 kts 230°
2026-05-06 01:28 38.35862 -104.57731 12479 ft 262 kts 258°
2026-05-06 01:28 38.35721 -104.60044 12009 ft 263 kts 267°
2026-05-06 01:28 38.35668 -104.62350 11540 ft 263 kts 267°
2026-05-06 01:29 38.35624 -104.64675 11052 ft 264 kts 267°
2026-05-06 01:29 38.35590 -104.67023 10555 ft 266 kts 267°
2026-05-06 01:29 38.35571 -104.69439 10095 ft 265 kts 267°
2026-05-06 01:29 38.35554 -104.71792 9616 ft 267 kts 267°
2026-05-06 01:30 38.35527 -104.74157 9187 ft 267 kts 268°
2026-05-06 01:30 38.35467 -104.76489 8948 ft 258 kts 261°
2026-05-06 01:30 38.34814 -104.78558 8437 ft 258 kts 230°
2026-05-06 01:30 38.33389 -104.79850 8114 ft 248 kts 195°
2026-05-06 01:31 38.31718 -104.80034 8087 ft 231 kts 177°
2026-05-06 01:31 38.30171 -104.79993 8060 ft 217 kts 177°
2026-05-06 01:31 38.28704 -104.79900 8062 ft 207 kts 165°
2026-05-06 01:31 38.27522 -104.78957 8096 ft 203 kts 125°
2026-05-06 01:32 38.27127 -104.77268 8099 ft 202 kts 84°
2026-05-06 01:32 38.27516 -104.75522 8105 ft 213 kts 75°
2026-05-06 01:32 38.27821 -104.73624 8085 ft 225 kts 84°
2026-05-06 01:32 38.27897 -104.71585 8071 ft 236 kts 92°
2026-05-06 01:33 38.27735 -104.69449 7984 ft 251 kts 99°
2026-05-06 01:33 38.27343 -104.67248 7378 ft 258 kts 106°
2026-05-06 01:33 38.27049 -104.65033 7079 ft 250 kts 88°
2026-05-06 01:33 38.27156 -104.62899 7029 ft 235 kts 85°
2026-05-06 01:34 38.27406 -104.60816 6630 ft 237 kts 77°
2026-05-06 01:34 38.27828 -104.58858 6479 ft 221 kts 73°
2026-05-06 01:34 38.28304 -104.57061 6259 ft 203 kts 71°
2026-05-06 01:34 38.28689 -104.55561 6079 ft 157 kts 75°
2026-05-06 01:35 38.28742 -104.54221 5391 ft 154 kts 92°
2026-05-06 01:35 38.28681 -104.52944 4995 ft 134 kts 90°
2026-05-06 01:35 38.28692 -104.51739 4821 ft 140 kts 86°
2026-05-06 01:35 38.28725 -104.50547 4677 ft 126 kts 86°
2026-05-06 01:36 38.28751 -104.49618 4668 ft 74 kts 89°
2026-05-06 01:36 38.28702 -104.49293 4664 ft 21 kts 116°
2026-05-06 01:36 38.28602 -104.49184 4657 ft 18 kts 176°
2026-05-06 01:36 38.28508 -104.49203 4653 ft 8 kts 259°
2026-05-06 01:37 38.28507 -104.49313 4653 ft 16 kts 266°
2026-05-06 01:37 38.28492 -104.49438 4655 ft 7 kts 193°
2026-05-06 01:37 38.28440 -104.49454 4654 ft 8 kts 251°
2026-05-06 01:37 38.28457 -104.49474 4654 ft 0 kts